Regional Weather Roundup
Issued by NWS Goodland, KS

Home | Current Version | Previous Version | Graphics & Text | Print | Product List | Glossary On
Versions: 1 2 3 4 5 6 7 8 9 10 11 12 13 14 15 16 17 18 19 20 21 22 23 24 25 26 27 28 29 30 31 32 33 34 35 36 37 38 39 40 41 42 43 44 45 46 47 48 49 50
000
ASUS43 KGLD 312108
RWRGLD

GOODLAND FORECAST AREA HOURLY WEATHER ROUNDUP
NATIONAL WEATHER SERVICE GOODLAND KS
200 PM MST SAT JAN 31 2015

...OFFICIAL OBSERVATIONS...

CITY           SKY/WX    TMP DP  RH WIND       PRES   REMARKS
GOODLAND KS    CLOUDY    37  34  89 NW13      29.79F
HILL CITY KS   CLOUDY    39  37  92 S10       29.84F
IMPERIAL NEB   LGT SNOW  34  32  92 NE6       29.83F FOG
MCCOOK NEB     FOG       36  34  92 NE6       29.83F VSB 1
AKRON CO       CLOUDY    35  32  88 N13       29.79F
BURLINGTON CO  CLOUDY    38  33  82 NW10      29.78F
LIMON CO       LGT SNOW  35  30  82 NW13      29.79F
$$

...UNOFFICIAL OBSERVATIONS...

CITY           SKY/WX    TMP DP  RH WIND       PRES   REMARKS
COLBY KS       CLOUDY    41  39  93 CALM      29.79F
GOVE KS          N/A     40  32  73 MISG        N/A
NORTON KS      CLOUDY    36  34  93 E5        29.83R FOG
SHARON SPRINGS   N/A     42  36  80 N10         N/A
KIT CARSON CO    N/A     37  34  88 MISG        N/A
YUMA CO          N/A     36  34  92 N5          N/A
$$


USA.gov is the U.S. government's official web portal to all federal, state and local government web resources and services.